S56WDN-10 Weather Reports


time (UTC)temp
C
wind
direction
speed
KPH
gust
KPH
rain 1hr
cm
rain 24hr
cm
rain mn
cm
humidity
%
barometer
mb
20260506161154 16 0 0.0 0.0 0.00 0.00 0.00 75 1009.8
20260506160654 16 0 0.0 0.0 0.00 0.00 0.00 75 1009.8
20260506160154 16 0 0.0 0.0 0.00 0.00 0.00 75 1009.9
20260506155654 16 0 0.0 0.0 0.00 0.00 0.00 75 1009.8
20260506155154 16 0 0.0 0.0 0.00 0.00 0.00 75 1009.9
20260506154654 16 0 0.0 0.0 0.00 0.00 0.00 74 1010.1
20260506154154 16 0 0.0 0.0 0.00 0.00 0.00 74 1010.1
20260506153654 16 0 0.0 0.0 0.00 0.00 0.00 74 1010.1
20260506153154 16 0 0.0 0.0 0.00 0.00 0.00 74 1010.2
20260506152654 16 0 0.0 0.0 0.00 0.00 0.00 74 1010.4
20260506152154 16 0 0.0 0.0 0.00 0.00 0.00 74 1010.3
20260506151654 16 0 0.0 0.0 0.00 0.00 0.00 74 1010.1
20260506151154 16 0 0.0 0.0 0.00 0.00 0.00 73 1010.2
20260506150654 16 0 0.0 0.0 0.00 0.00 0.00 73 1010.1
20260506150154 16 0 0.0 0.0 0.00 0.00 0.00 73 1010.1
20260506145654 16 0 0.0 0.0 0.00 0.00 0.00 72 1010.1
20260506145154 16 0 0.0 0.0 0.00 0.00 0.00 72 1010.2
20260506144654 16 0 0.0 0.0 0.00 0.00 0.00 70 1010.4
20260506144154 17 0 0.0 0.0 0.00 0.00 0.00 69 1010.4
20260506143654 17 0 0.0 0.0 0.00 0.00 0.00 69 1010.2
20260506143154 17 0 0.0 0.0 0.00 0.00 0.00 68 1010.1
20260506142654 17 0 0.0 0.0 0.00 0.00 0.00 67 1010.0
20260506142154 17 0 0.0 0.0 0.00 0.00 0.00 67 1010.1
20260506141654 17 0 0.0 0.0 0.00 0.00 0.00 67 1010.1
20260506141154 17 0 0.0 0.0 0.00 0.00 0.00 66 1010.2
20260506140654 17 0 0.0 0.0 0.00 0.00 0.00 66 1010.2
20260506140154 17 0 0.0 0.0 0.00 0.00 0.00 66 1010.3
20260506135654 17 0 0.0 0.0 0.00 0.00 0.00 66 1010.2
20260506135154 17 0 0.0 0.0 0.00 0.00 0.00 66 1010.1
20260506134654 17 0 0.0 0.0 0.00 0.00 0.00 66 1010.3
20260506134155 17 0 0.0 0.0 0.00 0.00 0.00 66 1010.4
20260506133654 17 0 0.0 0.0 0.00 0.00 0.00 65 1010.4
20260506133154 17 0 0.0 0.0 0.00 0.00 0.00 65 1010.3
20260506132654 18 0 0.0 0.0 0.00 0.00 0.00 65 1010.3
20260506132154 18 0 0.0 0.0 0.00 0.00 0.00 64 1010.4
20260506131654 18 0 0.0 0.0 0.00 0.00 0.00 64 1010.4
20260506131154 18 0 0.0 0.0 0.00 0.00 0.00 64 1010.4
20260506130654 18 0 0.0 0.0 0.00 0.00 0.00 63 1010.5
20260506130154 18 0 0.0 0.0 0.00 0.00 0.00 63 1010.4
20260506125654 18 0 0.0 0.0 0.00 0.00 0.00 62 1010.5
20260506125154 18 0 0.0 0.0 0.00 0.00 0.00 63 1010.5
20260506124654 18 0 0.0 0.0 0.00 0.00 0.00 63 1010.7
20260506124154 18 0 0.0 0.0 0.00 0.00 0.00 63 1010.7
20260506123654 18 0 0.0 0.0 0.00 0.00 0.00 63 1010.7
20260506123154 18 0 0.0 0.0 0.00 0.00 0.00 64 1010.7
20260506122654 18 0 0.0 0.0 0.00 0.00 0.00 64 1010.8
20260506122154 18 0 0.0 0.0 0.00 0.00 0.00 64 1010.8
20260506121654 18 0 0.0 0.0 0.00 0.00 0.00 64 1011.0
20260506121154 18 0 0.0 0.0 0.00 0.00 0.00 64 1010.9
20260506120654 18 0 0.0 0.0 0.00 0.00 0.00 64 1010.9
20260506120154 18 0 0.0 0.0 0.00 0.00 0.00 64 1011.0
20260506115654 18 0 0.0 0.0 0.00 0.00 0.00 64 1011.1
20260506115154 18 0 0.0 0.0 0.00 0.00 0.00 63 1011.1
20260506114654 18 0 0.0 0.0 0.00 0.00 0.00 62 1011.1
20260506114154 18 0 0.0 0.0 0.00 0.00 0.00 62 1011.1
20260506113654 18 0 0.0 0.0 0.00 0.00 0.00 62 1011.0
20260506113154 18 0 0.0 0.0 0.00 0.00 0.00 62 1011.1
20260506112654 18 0 0.0 0.0 0.00 0.00 0.00 62 1011.1
20260506112154 18 0 0.0 0.0 0.00 0.00 0.00 62 1011.1
20260506111654 18 0 0.0 0.0 0.00 0.00 0.00 62 1011.2
20260506111155 18 0 0.0 0.0 0.00 0.00 0.00 62 1011.2
20260506110655 19 0 0.0 0.0 0.00 0.00 0.00 61 1011.1
20260506110154 19 0 0.0 0.0 0.00 0.00 0.00 62 1011.3
20260506105655 19 0 0.0 0.0 0.00 0.00 0.00 61 1011.4
20260506105155 19 0 0.0 0.0 0.00 0.00 0.00 61 1011.5
20260506104655 20 0 0.0 0.0 0.00 0.00 0.00 61 1011.5
20260506104155 19 0 0.0 0.0 0.00 0.00 0.00 62 1011.3
20260506103655 19 0 0.0 0.0 0.00 0.00 0.00 63 1011.4
20260506103155 19 0 0.0 0.0 0.00 0.00 0.00 63 1011.5
20260506102655 19 0 0.0 0.0 0.00 0.00 0.00 63 1011.5
20260506102155 19 0 0.0 0.0 0.00 0.00 0.00 62 1011.6
20260506101655 19 0 0.0 0.0 0.00 0.00 0.00 68 1011.7
20260506101155 18 0 0.0 0.0 0.00 0.00 0.00 68 1011.7
20260506100655 18 0 0.0 0.0 0.00 0.00 0.00 68 1011.7
20260506100155 17 0 0.0 0.0 0.00 0.00 0.00 70 1011.8
20260506095655 17 0 0.0 0.0 0.00 0.00 0.00 70 1011.8
20260506095155 17 0 0.0 0.0 0.00 0.00 0.00 72 1011.9
20260506094655 17 0 0.0 0.0 0.00 0.00 0.00 72 1011.9
20260506094155 17 0 0.0 0.0 0.00 0.00 0.00 72 1012.0
20260506093655 17 0 0.0 0.0 0.00 0.00 0.00 73 1011.8
20260506093155 17 0 0.0 0.0 0.00 0.00 0.00 75 1012.0
20260506092655 17 0 0.0 0.0 0.00 0.00 0.00 76 1011.9
20260506092155 17 0 0.0 0.0 0.00 0.00 0.00 77 1011.9
20260506091655 16 0 0.0 0.0 0.00 0.00 0.00 76 1011.9
20260506091155 16 0 0.0 0.0 0.00 0.00 0.00 76 1011.9
20260506090655 16 0 0.0 0.0 0.00 0.00 0.00 75 1011.9
20260506090155 17 0 0.0 0.0 0.00 0.00 0.00 75 1011.9
20260506085655 17 0 0.0 0.0 0.00 0.00 0.00 74 1011.9
20260506085155 17 0 0.0 0.0 0.00 0.00 0.00 74 1011.9
20260506084655 17 0 0.0 0.0 0.00 0.00 0.00 74 1011.7
20260506084155 17 0 0.0 0.0 0.00 0.00 0.00 74 1011.7
20260506083655 17 0 0.0 0.0 0.00 0.00 0.00 75 1011.6
20260506083155 17 0 0.0 0.0 0.00 0.00 0.00 76 1011.5
20260506082655 17 0 0.0 0.0 0.00 0.00 0.00 76 1011.5
20260506082155 17 0 0.0 0.0 0.00 0.00 0.00 76 1011.5
20260506081655 16 0 0.0 0.0 0.00 0.00 0.00 76 1011.4
20260506081155 16 0 0.0 0.0 0.00 0.00 0.00 75 1011.4
20260506080655 16 0 0.0 0.0 0.00 0.00 0.00 75 1011.3
20260506080155 16 0 0.0 0.0 0.00 0.00 0.00 76 1011.4
20260506073155 15 0 0.0 0.0 0.00 0.00 0.00 80 1011.9
20260506072655 15 0 0.0 0.0 0.00 0.00 0.00 80 1012.0
20260506072155 15 0 0.0 0.0 0.00 0.00 0.00 80 1011.9
20260506071655 15 0 0.0 0.0 0.00 0.00 0.00 80 1011.9
20260506071155 15 0 0.0 0.0 0.00 0.00 0.00 81 1011.9
20260506070655 14 0 0.0 0.0 0.00 0.00 0.00 81 1011.9
20260506070155 14 0 0.0 0.0 0.00 0.00 0.00 81 1011.9
20260506062155 14 0 0.0 0.0 0.00 0.00 0.00 80 1011.8
20260506061655 14 0 0.0 0.0 0.00 0.00 0.00 80 1011.8
20260506061155 14 0 0.0 0.0 0.00 0.00 0.00 80 1011.6
20260506060655 14 0 0.0 0.0 0.00 0.00 0.00 81 1011.5
20260506060155 13 0 0.0 0.0 0.00 0.00 0.00 81 1011.5
20260506051155 13 0 0.0 0.0 0.00 0.00 0.00 82 1011.7
20260506050655 13 0 0.0 0.0 0.00 0.00 0.00 82 1011.6
20260506050155 13 0 0.0 0.0 0.00 0.00 0.00 82 1011.7
20260506044655 13 0 0.0 0.0 0.00 0.00 0.00 82 1011.6
20260506044155 13 0 0.0 0.0 0.00 0.00 0.00 82 1011.6
20260506043655 12 0 0.0 0.0 0.00 0.00 0.00 82 1011.5
20260506043155 12 0 0.0 0.0 0.00 0.00 0.00 82 1011.6
20260506042655 12 0 0.0 0.0 0.00 0.00 0.00 82 1011.6
20260506042155 12 0 0.0 0.0 0.00 0.00 0.00 81 1011.6
20260506041655 12 0 0.0 0.0 0.00 0.00 0.00 81 1011.6
20260506041155 13 0 0.0 0.0 0.00 0.00 0.00 80 1011.6
20260506040655 13 0 0.0 0.0 0.00 0.00 0.00 80 1011.6
20260506040155 13 0 0.0 0.0 0.00 0.00 0.00 80 1011.6
20260506035656 13 0 0.0 0.0 0.00 0.00 0.00 80 1011.6
20260506035155 13 0 0.0 0.0 0.00 0.00 0.00 80 1011.6
20260506034656 13 0 0.0 0.0 0.00 0.00 0.00 79 1011.7
20260506034155 13 0 0.0 0.0 0.00 0.00 0.00 80 1011.8
20260506033656 13 0 0.0 0.0 0.00 0.00 0.00 80 1011.8
20260506033156 13 0 0.0 0.0 0.00 0.00 0.00 79 1011.8
20260506032656 13 0 0.0 0.0 0.00 0.00 0.00 79 1011.6
20260506032156 13 0 0.0 0.0 0.00 0.00 0.00 78 1011.7
20260506031656 13 0 0.0 0.0 0.00 0.00 0.00 79 1011.7
20260506031156 13 0 0.0 0.0 0.00 0.00 0.00 79 1011.7
20260506030656 13 0 0.0 0.0 0.00 0.00 0.00 78 1011.8
20260506030156 13 0 0.0 0.0 0.00 0.00 0.00 78 1011.9
20260506025656 13 0 0.0 0.0 0.00 0.00 0.00 78 1011.8
20260506025156 13 0 0.0 0.0 0.00 0.00 0.00 78 1011.8
20260506024656 13 0 0.0 0.0 0.00 0.00 0.00 79 1011.9
20260506024156 13 0 0.0 0.0 0.00 0.00 0.00 79 1011.9
20260506023656 13 0 0.0 0.0 0.00 0.00 0.00 79 1012.0
20260506023156 13 0 0.0 0.0 0.00 0.00 0.00 79 1011.9
20260506022656 13 0 0.0 0.0 0.00 0.00 0.00 79 1012.0
20260506022156 13 0 0.0 0.0 0.00 0.00 0.00 79 1011.9
20260506021656 13 0 0.0 0.0 0.00 0.00 0.00 79 1012.0
20260506021156 13 0 0.0 0.0 0.00 0.00 0.00 78 1011.9
20260506020656 13 0 0.0 0.0 0.00 0.00 0.00 78 1011.9
20260506020156 13 0 0.0 0.0 0.00 0.00 0.00 78 1011.8
20260506015656 13 0 0.0 0.0 0.00 0.00 0.00 78 1011.9
20260506015156 13 0 0.0 0.0 0.00 0.00 0.00 78 1011.9
20260506014656 13 0 0.0 0.0 0.00 0.00 0.00 78 1011.8
20260506014156 13 0 0.0 0.0 0.00 0.00 0.00 78 1011.8
20260506013656 13 0 0.0 0.0 0.00 0.00 0.00 78 1011.8
20260506013156 13 0 0.0 0.0 0.00 0.00 0.00 78 1011.6
20260506012656 13 0 0.0 0.0 0.00 0.00 0.00 78 1011.7
20260506012156 13 0 0.0 0.0 0.00 0.00 0.00 78 1011.6
20260506011656 13 0 0.0 0.0 0.00 0.00 0.00 78 1011.6
20260506011156 13 0 0.0 0.0 0.00 0.00 0.00 78 1011.7
20260506010656 13 0 0.0 0.0 0.00 0.00 0.00 78 1011.6
20260506010156 13 0 0.0 0.0 0.00 0.00 0.00 78 1011.6
20260506005656 13 0 0.0 0.0 0.00 0.00 0.00 78 1011.6
20260506005156 13 0 0.0 0.0 0.00 0.00 0.00 78 1011.6
20260506004656 13 0 0.0 0.0 0.00 0.00 0.00 78 1011.7
20260506004156 13 0 0.0 0.0 0.00 0.00 0.00 78 1011.8
20260506003656 13 0 0.0 0.0 0.00 0.00 0.00 78 1011.8
20260506003156 13 0 0.0 0.0 0.00 0.00 0.00 78 1011.8
20260506002656 13 0 0.0 0.0 0.00 0.00 0.00 78 1011.8
20260506002156 13 0 0.0 0.0 0.00 0.00 0.00 78 1011.9
20260506001656 13 0 0.0 0.0 0.00 0.00 0.00 78 1011.9
20260506001156 13 0 0.0 0.0 0.00 0.00 0.00 78 1012.0
20260506000656 13 0 0.0 0.0 0.00 0.00 0.00 78 1012.0
20260506000156 13 0 0.0 0.0 0.00 0.00 0.00 78 1012.1
20260505235656 13 0 0.0 0.0 0.00 0.00 0.00 78 1012.1
20260505235156 13 0 0.0 0.0 0.00 0.00 0.00 78 1012.1
20260505234656 13 0 0.0 0.0 0.00 0.00 0.00 78 1012.1
20260505234156 13 0 0.0 0.0 0.00 0.00 0.00 78 1012.1
20260505233656 13 0 0.0 0.0 0.00 0.00 0.00 77 1012.1
20260505233156 13 0 0.0 0.0 0.00 0.00 0.00 77 1012.2
20260505232656 13 0 0.0 0.0 0.00 0.00 0.00 77 1012.2
20260505232156 13 0 0.0 0.0 0.00 0.00 0.00 77 1012.3
20260505231656 13 0 0.0 0.0 0.00 0.00 0.00 77 1012.2
20260505231156 13 0 0.0 0.0 0.00 0.00 0.00 77 1012.2
20260505230656 13 0 0.0 0.0 0.00 0.00 0.00 77 1012.3
20260505230156 14 0 0.0 0.0 0.00 0.00 0.00 77 1012.2
20260505225656 14 0 0.0 0.0 0.00 0.00 0.00 78 1012.2
20260505225156 14 0 0.0 0.0 0.00 0.00 0.00 78 1012.1
20260505224656 14 0 0.0 0.0 0.00 0.00 0.00 77 1012.2
20260505224156 14 0 0.0 0.0 0.00 0.00 0.00 77 1012.3
20260505223656 14 0 0.0 0.0 0.00 0.00 0.00 77 1012.2
20260505223156 14 0 0.0 0.0 0.00 0.00 0.00 77 1012.2
20260505222656 14 0 0.0 0.0 0.00 0.00 0.00 77 1012.2
20260505222156 14 0 0.0 0.0 0.00 0.00 0.00 77 1012.3
20260505221656 14 0 0.0 0.0 0.00 0.00 0.00 77 1012.3
20260505221156 14 0 0.0 0.0 0.00 0.00 0.00 78 1012.5
20260505220656 14 0 0.0 0.0 0.00 0.00 0.00 77 1012.4
20260505220156 14 0 0.0 0.0 0.00 0.00 0.00 77 1012.4
20260505215656 14 0 0.0 0.0 0.00 0.00 0.00 77 1012.3
20260505215156 14 0 0.0 0.0 0.00 0.00 0.00 77 1012.4
20260505214656 14 0 0.0 0.0 0.00 0.00 0.00 77 1012.4
20260505214156 14 0 0.0 0.0 0.00 0.00 0.00 77 1012.5
20260505213656 14 0 0.0 0.0 0.00 0.00 0.00 77 1012.5
20260505213156 14 0 0.0 0.0 0.00 0.00 0.00 77 1012.6
20260505212656 14 0 0.0 0.0 0.00 0.00 0.00 77 1012.5
20260505212156 14 0 0.0 0.0 0.00 0.00 0.00 78 1012.5
20260505211656 14 0 0.0 0.0 0.00 0.00 0.00 78 1012.6
20260505211156 14 0 0.0 0.0 0.00 0.00 0.00 78 1012.6
20260505210656 14 0 0.0 0.0 0.00 0.00 0.00 78 1012.7
20260505210156 14 0 0.0 0.0 0.00 0.00 0.00 78 1012.8
20260505205656 14 0 0.0 0.0 0.00 0.00 0.00 78 1012.8
20260505205156 14 0 0.0 0.0 0.00 0.00 0.00 78 1012.6
20260505204656 14 0 0.0 0.0 0.00 0.00 0.00 78 1012.8
20260505204156 14 0 0.0 0.0 0.00 0.00 0.00 78 1012.6
20260505203656 14 0 0.0 0.0 0.00 0.00 0.00 78 1012.6
20260505203156 14 0 0.0 0.0 0.00 0.00 0.00 78 1012.5
20260505202656 14 0 0.0 0.0 0.00 0.00 0.00 78 1012.5
20260505202156 14 0 0.0 0.0 0.00 0.00 0.00 78 1012.6
20260505201656 14 0 0.0 0.0 0.00 0.00 0.00 78 1012.6
20260505201156 14 0 0.0 0.0 0.00 0.00 0.00 78 1012.6
20260505200656 14 0 0.0 0.0 0.00 0.00 0.00 78 1012.6
20260505200156 13 0 0.0 0.0 0.00 0.00 0.00 78 1012.6
20260505195656 13 0 0.0 0.0 0.00 0.00 0.00 78 1012.5
20260505195156 13 0 0.0 0.0 0.00 0.00 0.00 77 1012.5
20260505194656 13 0 0.0 0.0 0.00 0.00 0.00 77 1012.5
20260505194157 13 0 0.0 0.0 0.00 0.00 0.00 77 1012.4
20260505193657 13 0 0.0 0.0 0.00 0.00 0.00 77 1012.6
20260505193157 14 0 0.0 0.0 0.00 0.00 0.00 77 1012.5
20260505192657 14 0 0.0 0.0 0.00 0.00 0.00 77 1012.6
20260505192157 14 0 0.0 0.0 0.00 0.00 0.00 77 1012.6
20260505191657 14 0 0.0 0.0 0.00 0.00 0.00 76 1012.4
20260505191157 14 0 0.0 0.0 0.00 0.00 0.00 76 1012.3
20260505190657 14 0 0.0 0.0 0.00 0.00 0.00 76 1012.5
20260505190157 14 0 0.0 0.0 0.00 0.00 0.00 76 1012.4
20260505185657 14 0 0.0 0.0 0.00 0.00 0.00 75 1012.4
20260505185157 14 0 0.0 0.0 0.00 0.00 0.00 75 1012.4
20260505184657 14 0 0.0 0.0 0.00 0.00 0.00 74 1012.2
20260505184157 14 0 0.0 0.0 0.00 0.00 0.00 74 1012.3
20260505183657 14 0 0.0 0.0 0.00 0.00 0.00 74 1012.2
20260505183157 14 0 0.0 0.0 0.00 0.00 0.00 73 1012.2
20260505182657 14 0 0.0 0.0 0.00 0.00 0.00 73 1012.1
20260505182157 14 0 0.0 0.0 0.00 0.00 0.00 73 1012.2
20260505181657 14 0 0.0 0.0 0.00 0.00 0.00 72 1012.2
20260505181157 14 0 0.0 0.0 0.00 0.00 0.00 72 1012.1
20260505180657 14 0 0.0 0.0 0.00 0.00 0.00 72 1012.2
20260505180157 14 0 0.0 0.0 0.00 0.00 0.00 71 1012.2
20260505175657 14 0 0.0 0.0 0.00 0.00 0.00 71 1012.3
20260505175223 15 0 0.0 0.0 0.00 0.00 0.00 71 1012.3
20260505174657 15 0 0.0 0.0 0.00 0.00 0.00 70 1012.2
20260505174157 15 0 0.0 0.0 0.00 0.00 0.00 70 1012.2
20260505173657 15 0 0.0 0.0 0.00 0.00 0.00 70 1012.4
20260505173157 15 0 0.0 0.0 0.00 0.00 0.00 70 1012.3
20260505172657 15 0 0.0 0.0 0.00 0.00 0.00 69 1012.4
20260505172157 15 0 0.0 0.0 0.00 0.00 0.00 69 1012.5
20260505171657 15 0 0.0 0.0 0.00 0.00 0.00 69 1012.5
20260505171157 15 0 0.0 0.0 0.00 0.00 0.00 69 1012.5
20260505170657 15 0 0.0 0.0 0.00 0.00 0.00 68 1012.6
20260505170157 15 0 0.0 0.0 0.00 0.00 0.00 68 1012.6
20260505165657 15 0 0.0 0.0 0.00 0.00 0.00 67 1012.6
20260505165157 15 0 0.0 0.0 0.00 0.00 0.00 67 1012.7
20260505164657 15 0 0.0 0.0 0.00 0.00 0.00 67 1012.5
20260505164157 15 0 0.0 0.0 0.00 0.00 0.00 66 1012.5
20260505163657 15 0 0.0 0.0 0.00 0.00 0.00 66 1012.4
20260505163157 16 0 0.0 0.0 0.00 0.00 0.00 65 1012.4
20260505162657 16 0 0.0 0.0 0.00 0.00 0.00 65 1012.4
20260505162157 16 0 0.0 0.0 0.00 0.00 0.00 65 1012.5
20260505161657 16 0 0.0 0.0 0.00 0.00 0.00 64 1012.6